CZ-6A DEB

Satellite information

Favourite Embed

Satellite Type and Status

DEBRISIN ORBIT

Key statistics

Satellite CZ-6A DEB at a glance.

Uptime

913

Days in orbit

Revolutions

≈ 14.1

Per day

Orbit

SSO

Sun Synchronous Orbit

Inclination

98.8

Latest

Satellite identification and parameters

Extended collection of information and parameters for CZ-6A DEB.

Object identification

Identified? True

Debris? True

Object name: CZ-6A DEB

International designator: 2022-151UW

Object number (NORAD): 55006

Object ID (CCSDS): 55006

Country: PEOPLES REPUBLIC OF CHINA (PRC)

Current information (Y/N): Y

RCS size: SMALL

Orbital parameters

Period: 101.825 minutes

Inclination: 98.8138 deg

SMA: 7223.215 km

Apoapsis: 876.807 km

Periapsis: 813.354 km

RAAN: 134.8287 deg

Eccentricy: 0.0043923

Argument of periapsis: 35.1621 deg

Mean anomaly: 325.2437 deg

Mean motion: 14.14187343 rev/day

Mean motion (dot): 0.0000191 rev/day2

B* drag term: 0.0010152 1/REarth

Two-line elements (TLE)

Creation date: May 11, 2025, 6:26 a.m.

Reference frame: TEME

Reference center: EARTH

Epoch: May 11, 2025, 5:28 a.m. UTC

TLE line 0: 0 CZ-6A DEB

TLE line 1: 1 55006U 22151UW 25131.22798056 .00001910 00000-0 10152-2 0 9990

TLE line 2: 2 55006 98.8138 134.8287 0043923 35.1621 325.2437 14.14187343127289

Live tracking on map

Real-time ground track for satellite CZ-6A DEB.

In-orbit conjunctions

A list of the most updated potential collisions computed for object CZ-6A DEB.

Target Orbit TCA Probability of collision Miss distance Type
CZ-6A DEB SSO 2025-04-10 12:54:17 0.0003075148 159.0 (m) DEBRIS
INTERCOSMOS 22 LEO 2025-03-30 09:24:53 0.0001151931 678.0 (m) PAYLOAD
CZ-6A DEB SSO 2024-11-11 03:32:13 0.0006273371 678.0 (m) DEBRIS

Associated space launch

Chinese satellite reported for atmospheric/ocean/environmental/spatial parameter research purposes, details TBD.

CZ-6A DEB was lifted into orbit during the mission ‘Long March 6A | Yunhai 3’, on board a Long March 6A space rocket.

The launch took place on Nov. 11, 2022, 10:52 p.m. from Launch Complex 9A.

For more information about the launch, click the button.

Launch to space Long March 6A | Yunhai 3
Long March 6A | Yunhai 3

Agency: N/A

Status: Launch Successful

Launch date: Nov. 11, 2022, 10:52 p.m. UTC

Rocket: Long March 6A

Launch pad: Launch Complex 9A

Location: Taiyuan Satellite Launch Center, People's Republic of China

...

Latest news about this satellite

There are no fresh news available about this satellite. Check back as we update our databases every day.


Newsletter sign-up

Weekly statistics, charts and insights to help you stay on top of the space industry.